TimeAKST,TemperatureF,Dew PointF,Humidity,Sea Level PressureIn,VisibilityMPH,Wind Direction,Wind SpeedMPH,Gust SpeedMPH,PrecipitationIn,Events,Conditions,WindDirDegrees,DateUTC
12:53 AM,19.0,8.1,62,29.86,9.0,Calm,Calm,-,0.00,Snow,Light Snow,0,2011-11-08 09:53:00
1:53 AM,18.0,12.0,78,29.90,5.0,Calm,Calm,-,0.00,Snow,Light Snow,0,2011-11-08 10:53:00
2:53 AM,17.1,10.9,77,29.93,5.0,East,3.5,-,0.00,Snow,Light Snow,90,2011-11-08 11:53:00
3:53 AM,15.1,10.9,84,29.96,10.0,Calm,Calm,-,0.00,,Mostly Cloudy,0,2011-11-08 12:53:00
4:53 AM,12.0,8.1,84,29.98,10.0,Calm,Calm,-,N/A,,Scattered Clouds,0,2011-11-08 13:53:00
5:53 AM,12.0,7.0,80,30.01,10.0,Calm,Calm,-,N/A,,Mostly Cloudy,0,2011-11-08 14:53:00
6:53 AM,10.0,5.0,80,30.04,10.0,Calm,Calm,-,N/A,,Partly Cloudy,0,2011-11-08 15:53:00
7:53 AM,15.1,10.0,80,30.08,10.0,Calm,Calm,-,N/A,,Mostly Cloudy,0,2011-11-08 16:53:00
8:53 AM,16.0,10.0,77,30.10,10.0,NNE,5.8,-,N/A,,Mostly Cloudy,20,2011-11-08 17:53:00
9:53 AM,14.0,10.9,88,30.12,10.0,Calm,Calm,-,N/A,,Scattered Clouds,0,2011-11-08 18:53:00
10:53 AM,16.0,10.9,81,30.14,10.0,Calm,Calm,-,N/A,,Scattered Clouds,0,2011-11-08 19:53:00
11:11 AM,15.8,10.4,79,30.14,10.0,Calm,Calm,-,N/A,,Partly Cloudy,0,2011-11-08 20:11:00
11:53 AM,16.0,12.0,84,30.17,10.0,North,4.6,-,N/A,,Mostly Cloudy,360,2011-11-08 20:53:00
12:21 PM,17.6,12.2,79,30.16,10.0,North,5.8,-,N/A,,Scattered Clouds,350,2011-11-08 21:21:00
12:53 PM,18.0,12.0,78,30.17,10.0,North,9.2,-,N/A,,Scattered Clouds,10,2011-11-08 21:53:00
1:53 PM,18.0,12.0,78,30.17,10.0,NNE,6.9,-,N/A,,Scattered Clouds,20,2011-11-08 22:53:00
2:53 PM,18.0,10.9,74,30.16,10.0,Calm,Calm,-,N/A,,Scattered Clouds,0,2011-11-08 23:53:00
3:53 PM,17.1,10.9,77,30.14,10.0,North,-9999.0,-,N/A,,Partly Cloudy,0,2011-11-09 00:53:00
4:53 PM,12.9,10.9,92,30.13,10.0,Calm,Calm,-,N/A,,Clear,0,2011-11-09 01:53:00
5:53 PM,12.0,8.1,84,30.12,10.0,Calm,Calm,-,N/A,,Clear,0,2011-11-09 02:53:00
6:53 PM,10.0,5.0,80,30.12,10.0,Calm,Calm,-,N/A,,Clear,0,2011-11-09 03:53:00
7:53 PM,9.0,3.0,77,30.10,10.0,Calm,Calm,-,N/A,,Clear,0,2011-11-09 04:53:00
8:53 PM,7.0,3.0,84,30.10,10.0,SE,3.5,-,N/A,,Clear,130,2011-11-09 05:53:00
9:53 PM,7.0,1.9,80,30.12,10.0,Calm,Calm,-,N/A,,Overcast,0,2011-11-09 06:53:00
10:53 PM,6.1,1.9,83,30.10,10.0,Calm,Calm,-,N/A,,Overcast,0,2011-11-09 07:53:00
11:53 PM,8.1,3.0,80,30.03,10.0,Calm,Calm,-,N/A,,Overcast,0,2011-11-09 08:53:00